Indiana, PA

1:16 AM EDT on April 29, 2017 (GMT -0400)
Indiana County-Stewart

Weather History for KIDI - February, 2014

Change the Weather History Date:

Thursday, February 27, 2014

  Actual Average Record
Temperature  
Mean Temperature 10 °F -  
Max Temperature 19 °F 42 °F 69 °F (1997)
Min Temperature 1 °F 23 °F -25 °F (1963)
Degree Days  
Heating Degree Days 55    
Moisture  
Dew Point 1 °F    
Average Humidity 60    
Maximum Humidity 79    
Minimum Humidity 46    
Precipitation  
Precipitation 0.00 in - - ()
Sea Level Pressure  
Sea Level Pressure 29.77 in    
Wind  
Wind Speed 12 mph (West)    
Max Wind Speed 26 mph    
Max Gust Speed 40 mph    
Visibility 9 miles    
Events      
Averages and records for this station are not official NWS values.
T = Trace of Precipitation, MM = Missing Value Source: NWS Daily Summary

Daily Weather History Graph

Daily Weather History Graph

Search for Another Location

Airport or City:

Trip Planner

Search our weather history database for the weather conditions in past years. The results will help you decide how hot, cold, wet, or windy it might be!

Date:

Astronomy

Feb. 27, 2014 Rise Set
Actual Time 6:53 AM EST 6:05 PM EST
Civil Twilight 6:25 AM EST 6:33 PM EST
Nautical Twilight 5:54 AM EST 7:04 PM EST
Astronomical Twilight 5:22 AM EST 7:36 PM EST
Moon 5:24 AM EST (2/27) 4:28 PM EST (2/27)
Length of Visible Light 12h 07m
Length of Day
11h 12m
Waning Crescent, 4% of the Moon is Illuminated
Feb 27
Waning Crescent
Mar 1
New
Mar 8
First Quarter
Mar 16
Full
Mar 23
Last Quarter

Hourly Weather History & Observations

Time (EST) Temp. Windchill Dew Point Humidity Pressure Visibility Wind Dir Wind Speed Gust Speed Precip Events Conditions
12:15 AM 12.2 °F 2.9 °F 3.2 °F 67% 29.72 in 10.0 mi WSW 5.8 mph - N/A   Clear
12:35 AM 12.2 °F 2.9 °F 3.2 °F 67% 29.72 in 10.0 mi WSW 5.8 mph - N/A   Clear
12:55 AM 12.2 °F 4.3 °F 3.2 °F 67% 29.71 in 10.0 mi WSW 4.6 mph - N/A   Clear
1:15 AM 12.2 °F 1.7 °F 1.4 °F 62% 29.70 in 10.0 mi SW 6.9 mph - N/A   Scattered Clouds
1:40 AM 14.0 °F 2.9 °F 1.4 °F 57% 29.69 in 10.0 mi SW 8.1 mph - N/A   Overcast
1:55 AM 14.0 °F 2.9 °F 3.2 °F 62% 29.68 in 10.0 mi SW 8.1 mph - N/A   Overcast
2:15 AM 14.0 °F 2.9 °F 1.4 °F 57% 29.67 in 10.0 mi SW 8.1 mph 16.1 mph N/A   Overcast
2:35 AM 14.0 °F 2.9 °F 1.4 °F 57% 29.66 in 10.0 mi SW 8.1 mph - N/A   Mostly Cloudy
2:55 AM 14.0 °F 1.2 °F 1.4 °F 57% 29.64 in 10.0 mi SW 10.4 mph - N/A   Overcast
3:15 AM 14.0 °F 0.5 °F 1.4 °F 57% 29.63 in 10.0 mi WSW 11.5 mph - N/A   Overcast
3:35 AM 15.8 °F 1.4 °F 1.4 °F 53% 29.62 in 10.0 mi WSW 13.8 mph 19.6 mph N/A   Overcast
3:55 AM 15.8 °F 1.4 °F 1.4 °F 53% 29.61 in 10.0 mi WSW 13.8 mph 20.7 mph N/A   Mostly Cloudy
4:15 AM 15.8 °F -0.2 °F 1.4 °F 53% 29.60 in 10.0 mi WSW 17.3 mph 24.2 mph N/A   Mostly Cloudy
4:35 AM 15.8 °F 0.9 °F 1.4 °F 53% 29.60 in 10.0 mi WSW 15.0 mph 24.2 mph N/A   Mostly Cloudy
4:55 AM 15.8 °F -0.6 °F 1.4 °F 53% 29.60 in 10.0 mi WSW 18.4 mph 24.2 mph N/A   Mostly Cloudy
5:15 AM 14.0 °F -0.2 °F -0.4 °F 53% 29.60 in 10.0 mi West 12.7 mph 18.4 mph N/A   Mostly Cloudy
5:35 AM 14.0 °F -2.0 °F 1.4 °F 57% 29.60 in 10.0 mi WSW 16.1 mph 24.2 mph N/A   Scattered Clouds
5:55 AM 14.0 °F -1.4 °F 1.4 °F 57% 29.60 in 10.0 mi West 15.0 mph 18.4 mph N/A   Scattered Clouds
6:15 AM 14.0 °F -1.4 °F -0.4 °F 53% 29.59 in 10.0 mi WSW 15.0 mph 21.9 mph N/A   Scattered Clouds
6:35 AM 14.0 °F -2.0 °F 1.4 °F 57% 29.58 in 10.0 mi WSW 16.1 mph 23.0 mph N/A   Overcast
6:55 AM 14.0 °F -2.5 °F 1.4 °F 57% 29.58 in 10.0 mi WSW 17.3 mph 26.5 mph N/A   Overcast
7:15 AM 14.0 °F -2.0 °F 1.4 °F 57% 29.58 in 10.0 mi WSW 16.1 mph 23.0 mph N/A   Overcast
7:35 AM 15.8 °F -0.2 °F 1.4 °F 53% 29.58 in 10.0 mi WSW 17.3 mph 24.2 mph N/A   Overcast
7:55 AM 15.8 °F 0.3 °F 5.0 °F 62% 29.58 in 4.0 mi WSW 16.1 mph 23.0 mph N/A   Overcast
8:15 AM 15.8 °F -0.6 °F 6.8 °F 68% 29.59 in 2.5 mi WSW 18.4 mph - N/A   Overcast
8:35 AM 15.8 °F 1.4 °F 6.8 °F 68% 29.60 in 2.0 mi West 13.8 mph 21.9 mph N/A   Overcast
9:00 AM 15.8 °F 0.9 °F 8.6 °F 73% 29.60 in 1.8 mi West 15.0 mph 25.3 mph N/A   Overcast
9:15 AM 15.8 °F 2.1 °F 8.6 °F 73% 29.60 in 3.0 mi WSW 12.7 mph - N/A   Overcast
9:35 AM 17.6 °F 2.2 °F 6.8 °F 63% 29.60 in 10.0 mi West 17.3 mph 27.6 mph N/A   Mostly Cloudy
9:55 AM 17.6 °F 0.5 °F 1.4 °F 49% 29.60 in 10.0 mi West 21.9 mph 32.2 mph N/A   Mostly Cloudy
10:15 AM 17.6 °F 0.5 °F 3.2 °F 53% 29.60 in 7.0 mi West 21.9 mph 33.4 mph N/A   Mostly Cloudy
10:35 AM 17.6 °F 0.9 °F 5.0 °F 58% 29.61 in 7.0 mi West 20.7 mph 34.5 mph N/A   Mostly Cloudy
10:55 AM 19.4 °F 2.8 °F 3.2 °F 49% 29.61 in 10.0 mi West 21.9 mph 31.1 mph N/A   Scattered Clouds
11:15 AM 19.4 °F 2.5 °F 1.4 °F 46% 29.61 in 10.0 mi West 23.0 mph 34.5 mph N/A   Mostly Cloudy
11:35 AM 19.4 °F 1.8 °F 3.2 °F 49% 29.63 in 4.0 mi West 25.3 mph 40.3 mph N/A   Mostly Cloudy
11:55 AM 19.4 °F 7.9 °F 10.4 °F 68% 29.64 in 3.0 mi West 10.4 mph 33.4 mph N/A   Mostly Cloudy
12:15 PM 17.6 °F 3.2 °F 8.6 °F 68% 29.64 in 10.0 mi WNW 15.0 mph 26.5 mph N/A   Overcast
12:35 PM 17.6 °F -0.3 °F 10.4 °F 73% 29.66 in 0.2 mi West 24.2 mph 34.5 mph N/A   Overcast
12:55 PM 17.6 °F 2.2 °F 10.4 °F 73% 29.66 in - WNW 17.3 mph 28.8 mph N/A   Overcast
1:15 PM 15.8 °F -1.1 °F 10.4 °F 79% 29.68 in - WNW 19.6 mph 31.1 mph N/A   Overcast
1:35 PM 15.8 °F -3.4 °F 6.8 °F 68% 29.70 in - WNW 26.5 mph 39.1 mph N/A   Overcast
1:55 PM 15.8 °F -1.1 °F 8.6 °F 73% 29.71 in - WNW 19.6 mph 29.9 mph N/A   Overcast
2:15 PM 17.6 °F 4.3 °F 8.6 °F 68% 29.72 in - WNW 12.7 mph 26.5 mph N/A   Mostly Cloudy
2:35 PM 15.8 °F -1.1 °F 6.8 °F 68% 29.75 in - NW 19.6 mph 34.5 mph N/A   Mostly Cloudy
2:55 PM 15.8 °F 1.4 °F 6.8 °F 68% 29.77 in - WNW 13.8 mph 23.0 mph N/A   Overcast
3:15 PM 15.8 °F -1.1 °F 3.2 °F 58% 29.79 in - WNW 19.6 mph 35.7 mph N/A   Overcast
3:35 PM 15.8 °F 1.4 °F 1.4 °F 53% 29.81 in - NW 13.8 mph 27.6 mph N/A   Mostly Cloudy
3:55 PM 12.2 °F -6.7 °F 3.2 °F 67% 29.84 in - NNW 21.9 mph 28.8 mph N/A   Overcast
4:15 PM 10.4 °F -7.7 °F 3.2 °F 73% 29.86 in - NW 18.4 mph 25.3 mph N/A   Overcast
4:35 PM 10.4 °F -8.2 °F -0.4 °F 62% 29.89 in - NNW 19.6 mph 26.5 mph N/A   Overcast
4:55 PM 10.4 °F -5.4 °F -2.2 °F 57% 29.90 in - NW 13.8 mph 18.4 mph N/A   Overcast
5:15 PM 10.4 °F -4.1 °F -5.8 °F 48% 29.91 in - NW 11.5 mph 19.6 mph N/A   Overcast
5:35 PM 8.6 °F -7.0 °F -2.2 °F 62% 29.93 in - NW 12.7 mph 26.5 mph N/A   Overcast
5:55 PM 8.6 °F -5.5 °F -2.2 °F 62% 29.95 in 10.0 mi NW 10.4 mph - N/A   Overcast
6:15 PM 8.6 °F -7.0 °F -5.8 °F 52% 29.96 in 10.0 mi NW 12.7 mph 21.9 mph N/A   Scattered Clouds
6:35 PM 8.6 °F -6.3 °F -7.6 °F 48% 29.98 in 10.0 mi NW 11.5 mph 26.5 mph N/A   Mostly Cloudy
6:55 PM 6.8 °F -11.3 °F -7.6 °F 52% 29.99 in 10.0 mi WNW 16.1 mph 19.6 mph N/A   Mostly Cloudy
7:15 PM 6.8 °F -8.6 °F -7.6 °F 52% 30.00 in 10.0 mi NW 11.5 mph 16.1 mph N/A   Clear
7:35 PM 6.8 °F -8.6 °F -4.0 °F 61% 30.01 in 10.0 mi NW 11.5 mph 23.0 mph N/A   Clear
7:55 PM 6.8 °F -6.9 °F -4.0 °F 61% 30.02 in 10.0 mi NW 9.2 mph 16.1 mph N/A   Clear
8:15 PM 6.8 °F -5.9 °F -4.0 °F 61% 30.03 in 10.0 mi NW 8.1 mph - N/A   Clear
8:35 PM 5.0 °F -10.0 °F -5.8 °F 61% 30.03 in 10.0 mi NNW 10.4 mph 16.1 mph N/A   Clear
8:55 PM 5.0 °F -5.6 °F -5.8 °F 61% 30.04 in 10.0 mi NNW 5.8 mph - N/A   Clear
9:15 PM 5.0 °F -5.6 °F -7.6 °F 56% 30.04 in 10.0 mi NW 5.8 mph - N/A   Clear
9:35 PM 3.2 °F -10.3 °F -7.6 °F 61% 30.06 in 10.0 mi NW 8.1 mph - N/A   Clear
9:55 PM 3.2 °F -4.2 °F -7.6 °F 61% 30.07 in 10.0 mi NW 3.5 mph - N/A   Clear
10:15 PM 3.2 °F -6.2 °F -7.6 °F 61% 30.08 in 10.0 mi NW 4.6 mph - N/A   Clear
10:35 PM 3.2 °F -4.2 °F -7.6 °F 61% 30.08 in 10.0 mi NW 3.5 mph - N/A   Clear
10:55 PM 3.2 °F - -7.6 °F 61% 30.09 in 10.0 mi Calm Calm - N/A   Clear
11:15 PM 1.4 °F - -7.6 °F 66% 30.09 in 10.0 mi Calm Calm - N/A   Clear
11:35 PM 1.4 °F - -7.6 °F 66% 30.09 in 10.0 mi Calm Calm - N/A   Clear
11:55 PM 1.4 °F - -7.6 °F 66% 30.10 in 10.0 mi Calm Calm - N/A   Clear